FW9386 Weather Reports


time (UTC)temp
C
wind
direction
speed
KPH
gust
KPH
rain 1hr
cm
rain 24hr
cm
rain mn
cm
humidity
%
barometer
mb
20260506110555 23 150 0.0 3.2 0.00 0.00 0.00 94 1009.6
20260506110109 23 124 1.6 4.8 0.00 0.00 0.00 94 1009.6
20260506105555 23 0 1.6 6.4 0.00 0.00 0.00 94 1009.4
20260506105055 23 147 1.6 6.4 0.00 0.00 0.00 94 1009.3
20260506104611 23 169 1.6 4.8 0.00 0.00 0.00 94 1009.3
20260506104054 23 0 1.6 4.8 0.00 0.00 0.00 94 1009.3
20260506103555 23 0 1.6 4.8 0.00 0.00 0.00 94 1009.1
20260506103054 23 119 1.6 4.8 0.00 0.00 0.00 94 1009.1
20260506102557 23 109 1.6 8.0 0.00 0.00 0.00 94 1009.3
20260506102059 23 126 1.6 8.0 0.00 0.00 0.00 94 1009.4
20260506101554 23 112 1.6 8.0 0.00 0.00 0.00 94 1009.1
20260506101057 23 152 1.6 6.4 0.00 0.00 0.00 94 1009.1
20260506100557 23 156 1.6 8.0 0.00 0.00 0.00 94 1009.2
20260506095555 23 185 3.2 8.0 0.00 0.00 0.00 94 1009.2
20260506095055 23 168 1.6 3.2 0.00 0.00 0.00 94 1009.1
20260506094601 23 0 0.0 3.2 0.00 0.00 0.00 94 1009.3
20260506094055 23 166 1.6 3.2 0.00 0.00 0.00 94 1009.3
20260506093554 23 128 0.0 3.2 0.00 0.00 0.00 94 1009.4
20260506093055 23 0 0.0 6.4 0.00 0.00 0.00 94 1009.5
20260506092556 23 157 0.0 6.4 0.00 0.00 0.00 94 1009.3
20260506092056 23 178 1.6 4.8 0.00 0.00 0.00 94 1009.4
20260506091557 23 170 1.6 8.0 0.00 0.00 0.00 94 1009.5
20260506091055 23 143 1.6 8.0 0.00 0.00 0.00 94 1009.4
20260506090557 23 138 1.6 4.8 0.00 0.00 0.00 94 1009.5
20260506090053 23 0 1.6 4.8 0.00 0.00 0.00 94 1009.5
20260506085555 23 220 0.0 3.2 0.00 0.00 0.00 94 1009.5
20260506085055 23 190 0.0 4.8 0.00 0.00 0.00 94 1009.5
20260506084631 23 0 0.0 4.8 0.00 0.00 0.00 94 1009.5
20260506084055 23 124 0.0 4.8 0.00 0.00 0.00 94 1009.6
20260506083553 23 178 0.0 3.2 0.00 0.00 0.00 94 1009.6
20260506083054 23 0 0.0 4.8 0.00 0.00 0.00 93 1009.6
20260506082557 23 0 0.0 4.8 0.00 0.00 0.00 93 1009.6
20260506082055 23 0 0.0 3.2 0.00 0.00 0.00 93 1009.7
20260506081559 23 118 1.6 3.2 0.00 0.00 0.00 93 1009.6
20260506081056 23 0 1.6 3.2 0.00 0.00 0.00 93 1009.8
20260506080559 23 154 0.0 3.2 0.00 0.00 0.00 93 1009.8
20260506073057 23 157 1.6 6.4 0.00 0.00 0.00 93 1010.0
20260506072555 23 150 1.6 6.4 0.00 0.00 0.00 93 1010.1
20260506072055 23 111 1.6 6.4 0.00 0.00 0.00 93 1010.1
20260506071558 23 194 3.2 8.0 0.00 0.00 0.00 92 1010.0
20260506071055 23 125 1.6 8.0 0.00 0.00 0.00 92 1010.0
20260506070555 23 152 3.2 9.7 0.00 0.00 0.00 92 1010.1
20260506062055 23 162 3.2 9.7 0.00 0.00 0.00 92 1009.8
20260506061559 23 130 3.2 9.7 0.00 0.00 0.00 92 1009.8
20260506061055 23 179 1.6 6.4 0.00 0.00 0.00 92 1010.0
20260506060556 23 151 1.6 8.0 0.00 0.00 0.00 92 1010.2
20260506051054 23 259 3.2 11.3 0.00 0.00 0.00 91 1010.4
20260506050556 23 147 1.6 11.3 0.00 0.00 0.00 91 1010.3
20260506045055 23 105 1.6 9.7 0.00 0.00 0.00 91 1010.2
20260506044553 23 118 4.8 9.7 0.00 0.00 0.00 91 1010.2
20260506044056 23 119 3.2 16.1 0.00 0.00 0.00 91 1010.1
20260506043555 24 143 3.2 16.1 0.00 0.00 0.00 91 1010.1
20260506043054 23 113 4.8 14.5 0.00 0.00 0.00 92 1010.0
20260506042555 24 350 4.8 12.9 0.00 0.00 0.00 92 1010.0
20260506042058 23 164 3.2 12.9 0.00 0.00 0.00 91 1010.2
20260506041606 24 183 3.2 11.3 0.00 0.00 0.00 91 1010.2
20260506041054 24 168 4.8 11.3 0.00 0.00 0.00 91 1010.2
20260506040555 24 280 4.8 11.3 0.00 0.00 0.00 91 1010.3
20260506040053 24 143 4.8 14.5 0.00 0.00 0.00 91 1010.2
20260506035555 24 195 4.8 14.5 0.00 0.00 0.00 91 1010.1
20260506035055 24 238 4.8 11.3 0.00 0.00 0.00 91 1010.0
20260506034555 24 118 4.8 14.5 0.00 0.00 0.00 91 1010.1
20260506034057 24 105 3.2 14.5 0.00 0.00 0.00 91 1010.0
20260506033557 24 157 3.2 11.3 0.00 0.00 0.00 91 1010.0
20260506033053 24 169 3.2 12.9 0.00 0.00 0.00 91 1009.9
20260506032555 24 116 4.8 12.9 0.00 0.00 0.00 91 1009.9
20260506032055 24 89 3.2 9.7 0.00 0.00 0.00 92 1009.9
20260506031556 24 127 4.8 9.7 0.00 0.00 0.00 92 1009.8
20260506031054 24 125 3.2 16.1 0.00 0.00 0.00 92 1009.8
20260506030557 24 153 4.8 16.1 0.00 0.00 0.00 92 1009.7
20260506030054 24 125 4.8 12.9 0.00 0.00 0.00 92 1009.5
20260506025555 24 137 4.8 11.3 0.00 0.00 0.00 92 1009.6
20260506025058 24 90 3.2 8.0 0.00 0.00 0.00 92 1009.6
20260506024555 23 151 1.6 8.0 0.00 0.00 0.00 92 1009.5
20260506024055 23 132 1.6 9.7 0.00 0.00 0.00 92 1009.5
20260506023556 23 150 3.2 9.7 0.00 0.00 0.00 92 1009.3
20260506023105 23 147 3.2 9.7 0.00 0.00 0.00 92 1009.2
20260506022555 23 120 3.2 9.7 0.00 0.00 0.00 92 1009.2
20260506022055 24 133 3.2 9.7 0.00 0.00 0.00 92 1009.3
20260506021612 24 143 3.2 9.7 0.00 0.00 0.00 91 1009.1
20260506021054 24 128 3.2 9.7 0.00 0.00 0.00 91 1009.0
20260506020555 24 120 4.8 9.7 0.00 0.00 0.00 91 1009.0
20260506020055 24 100 4.8 14.5 0.00 0.00 0.00 91 1009.0
20260506015555 24 124 3.2 14.5 0.00 0.00 0.00 91 1008.9
20260506015057 24 107 4.8 14.5 0.00 0.00 0.00 90 1009.0
20260506014554 24 153 4.8 11.3 0.00 0.00 0.00 90 1009.1
20260506014059 24 128 4.8 11.3 0.00 0.00 0.00 90 1009.1
20260506013555 24 119 3.2 11.3 0.00 0.00 0.00 90 1009.0
20260506013107 24 162 4.8 12.9 0.00 0.00 0.00 90 1008.8
20260506012555 24 180 4.8 12.9 0.00 0.00 0.00 90 1008.8
20260506012054 24 126 4.8 11.3 0.00 0.00 0.00 90 1008.8
20260506011615 24 124 4.8 11.3 0.00 0.00 0.00 90 1008.7
20260506011055 24 123 6.4 12.9 0.00 0.00 0.00 90 1008.6
20260506010555 24 88 4.8 16.1 0.00 0.00 0.00 89 1008.5
20260506010058 25 168 6.4 16.1 0.00 0.00 0.00 89 1008.5
20260506005558 25 161 4.8 16.1 0.00 0.00 0.00 89 1008.4
20260506005054 25 150 6.4 16.1 0.00 0.00 0.00 89 1008.4
20260506004555 25 190 6.4 16.1 0.00 0.00 0.00 89 1008.4
20260506004054 25 116 6.4 16.1 0.00 0.00 0.00 89 1008.5
20260506003555 25 285 8.0 16.1 0.00 0.00 0.00 89 1008.3
20260506003057 25 167 3.2 16.1 0.00 0.00 0.00 88 1008.2
20260506002555 25 131 3.2 16.1 0.00 0.00 0.00 88 1008.2
20260506002055 25 140 6.4 16.1 0.00 0.00 0.00 88 1008.2
20260506001556 25 194 8.0 16.1 0.00 0.00 0.00 88 1008.3
20260506001055 25 172 4.8 16.1 0.00 0.00 0.00 87 1008.4
20260506000555 25 108 6.4 16.1 0.00 0.00 0.00 87 1008.4
20260506000054 25 110 4.8 11.3 0.00 0.00 0.00 87 1008.2
20260505235554 25 225 4.8 11.3 0.00 0.00 0.00 87 1008.5
20260505235056 25 117 6.4 14.5 0.00 0.00 0.00 87 1008.5
20260505234556 25 165 4.8 14.5 0.00 0.00 0.00 87 1008.6
20260505234054 25 171 6.4 14.5 0.00 0.00 0.00 87 1008.4
20260505233555 25 192 4.8 14.5 0.00 0.00 0.00 87 1008.4
20260505233105 25 181 4.8 19.3 0.00 0.00 0.00 86 1008.3
20260505232555 25 207 6.4 19.3 0.00 0.00 0.00 86 1008.4
20260505232056 25 112 6.4 19.3 0.00 0.00 0.00 86 1008.6
20260505231612 25 174 4.8 14.5 0.00 0.00 0.00 86 1008.7
20260505231056 25 228 4.8 14.5 0.00 0.00 0.00 85 1008.6
20260505230555 25 111 4.8 14.5 0.00 0.00 0.00 86 1008.5
20260505225555 25 189 4.8 16.1 0.00 0.00 0.00 86 1008.5
20260505225055 25 250 4.8 16.1 0.00 0.00 0.00 86 1008.7
20260505224604 25 139 4.8 16.1 0.00 0.00 0.00 86 1008.6
20260505224054 25 114 4.8 16.1 0.00 0.00 0.00 85 1008.5
20260505223554 25 80 6.4 16.1 0.00 0.00 0.00 85 1008.5
20260505223058 26 152 3.2 16.1 0.00 0.00 0.00 84 1008.6
20260505222557 26 220 4.8 17.7 0.00 0.00 0.00 84 1008.8
20260505222056 26 198 6.4 17.7 0.00 0.00 0.00 84 1008.7
20260505221603 26 199 6.4 14.5 0.00 0.00 0.00 84 1008.9
20260505221055 26 81 6.4 16.1 0.00 0.00 0.00 84 1008.7
20260505220555 26 142 4.8 19.3 0.00 0.00 0.00 83 1008.6
20260505215554 26 185 6.4 16.1 0.00 0.00 0.00 83 1008.6
20260505215055 26 187 4.8 16.1 0.00 0.00 0.00 82 1008.6
20260505214558 26 167 6.4 17.7 0.00 0.00 0.00 80 1008.6
20260505214058 26 164 6.4 17.7 0.00 0.00 0.00 81 1008.7
20260505213554 26 187 4.8 14.5 0.00 0.00 0.00 80 1008.7
20260505213056 26 273 6.4 19.3 0.00 0.00 0.00 80 1008.9
20260505212554 26 107 4.8 19.3 0.00 0.00 0.00 81 1009.0
20260505212054 26 235 8.0 16.1 0.00 0.00 0.00 80 1008.8
20260505211553 26 178 6.4 19.3 0.00 0.00 0.00 80 1009.0
20260505211054 27 89 8.0 19.3 0.00 0.00 0.00 80 1008.8
20260505210554 27 195 3.2 14.5 0.00 0.00 0.00 80 1008.9
20260505210055 27 180 4.8 16.1 0.00 0.00 0.00 80 1009.0
20260505205555 27 145 6.4 16.1 0.00 0.00 0.00 80 1009.0
20260505205055 27 124 4.8 19.3 0.00 0.00 0.00 80 1009.1
20260505204553 27 138 6.4 19.3 0.00 0.00 0.00 80 1009.0
20260505204054 27 255 6.4 17.7 0.00 0.00 0.00 80 1009.2
20260505203554 27 119 6.4 17.7 0.00 0.00 0.00 80 1009.3
20260505203117 27 166 3.2 24.1 0.00 0.00 0.00 80 1009.6
20260505202557 27 209 8.0 24.1 0.00 0.00 0.00 80 1009.4
20260505202056 27 168 4.8 24.1 0.00 0.00 0.00 80 1009.4
20260505201601 27 183 8.0 19.3 0.00 0.00 0.00 80 1009.5
20260505201054 26 147 4.8 20.9 0.00 0.00 0.00 82 1009.5
20260505200554 26 241 6.4 20.9 0.00 0.00 0.00 81 1009.5
20260505200057 26 211 4.8 17.7 0.00 0.00 0.00 81 1009.6
20260505195555 26 126 6.4 16.1 0.00 0.00 0.00 81 1009.6
20260505195053 26 159 4.8 17.7 0.00 0.00 0.00 80 1009.7
20260505194553 26 149 6.4 17.7 0.00 0.00 0.00 80 1009.7
20260505194054 26 241 4.8 14.5 0.00 0.00 0.00 81 1009.9
20260505193554 26 140 4.8 17.7 0.00 0.00 0.00 81 1010.0
20260505193053 26 146 6.4 19.3 0.00 0.00 0.00 81 1010.1
20260505192557 26 232 4.8 19.3 0.00 0.00 0.00 81 1010.0
20260505192054 26 130 6.4 19.3 0.00 0.00 0.00 80 1010.0
20260505191611 26 192 6.4 17.7 0.00 0.00 0.00 80 1010.1
20260505191055 26 198 3.2 14.5 0.00 0.00 0.00 80 1010.2
20260505190554 26 263 3.2 14.5 0.00 0.00 0.00 80 1010.2
20260505190057 26 162 8.0 14.5 0.00 0.00 0.00 81 1010.2
20260505185554 26 235 4.8 14.5 0.00 0.00 0.00 79 1010.2
20260505185055 26 254 6.4 14.5 0.00 0.00 0.00 79 1010.2
20260505184555 26 126 4.8 14.5 0.00 0.00 0.00 79 1010.2
20260505184055 26 114 4.8 19.3 0.00 0.00 0.00 79 1010.3
20260505183555 26 155 8.0 19.3 0.00 0.00 0.00 80 1010.2
20260505183053 26 166 6.4 20.9 0.00 0.00 0.00 80 1010.2
20260505182554 26 208 8.0 20.9 0.00 0.00 0.00 81 1010.2
20260505182054 26 161 6.4 20.9 0.00 0.00 0.00 80 1010.3
20260505181553 26 202 4.8 14.5 0.00 0.00 0.00 80 1010.2
20260505181055 26 173 4.8 12.9 0.00 0.00 0.00 81 1010.2
20260505180554 26 154 6.4 19.3 0.00 0.00 0.00 81 1010.3
20260505175555 26 107 6.4 19.3 0.00 0.00 0.00 80 1010.3
20260505175054 26 187 6.4 19.3 0.00 0.00 0.00 79 1010.5
20260505174555 26 110 6.4 16.1 0.00 0.00 0.00 78 1010.4
20260505174054 26 202 6.4 16.1 0.00 0.00 0.00 78 1010.3
20260505173554 27 197 6.4 17.7 0.00 0.00 0.00 77 1010.4
20260505173057 27 183 4.8 17.7 0.00 0.00 0.00 78 1010.6
20260505172553 26 126 6.4 17.7 0.00 0.00 0.00 79 1010.6
20260505172053 26 204 4.8 14.5 0.00 0.00 0.00 79 1010.7
20260505171555 26 140 6.4 19.3 0.00 0.00 0.00 79 1010.8
20260505171055 26 151 6.4 19.3 0.00 0.00 0.00 80 1010.9
20260505170554 26 153 8.0 19.3 0.00 0.00 0.00 80 1011.0
20260505170108 26 236 6.4 16.1 0.00 0.00 0.00 80 1010.8
20260505165554 26 161 4.8 14.5 0.00 0.00 0.00 79 1010.9
20260505165057 26 320 4.8 14.5 0.00 0.00 0.00 79 1010.8
20260505164556 26 158 3.2 11.3 0.00 0.00 0.00 79 1010.8
20260505164054 26 238 4.8 17.7 0.00 0.00 0.00 80 1010.7
20260505163553 26 123 4.8 17.7 0.00 0.00 0.00 82 1010.8
20260505163103 25 150 9.7 17.7 0.00 0.00 0.00 81 1010.8
20260505162554 25 116 3.2 16.1 0.00 0.00 0.00 81 1010.7
20260505162057 25 185 4.8 17.7 0.00 0.00 0.00 81 1010.7
20260505161615 25 178 4.8 17.7 0.00 0.00 0.00 81 1010.7
20260505161054 26 188 6.4 17.7 0.00 0.00 0.00 79 1010.7
20260505160555 26 178 4.8 16.1 0.00 0.00 0.00 80 1010.6
20260505153104 26 195 4.8 17.7 0.00 0.00 0.00 79 1010.3
20260505152556 26 102 6.4 17.7 0.00 0.00 0.00 79 1010.2
20260505152054 26 150 4.8 17.7 0.00 0.00 0.00 79 1010.0
20260505151604 26 242 6.4 17.7 0.00 0.00 0.00 80 1010.1
20260505151057 26 239 6.4 17.7 0.00 0.00 0.00 79 1010.2
20260505150554 26 165 6.4 17.7 0.00 0.00 0.00 79 1010.1
20260505140555 24 254 4.8 14.5 0.00 0.00 0.00 84 1010.4
20260505124554 23 202 3.2 11.3 0.00 0.00 0.00 87 1010.0
20260505124055 23 168 3.2 12.9 0.00 0.00 0.00 87 1009.8
20260505123554 23 106 1.6 12.9 0.00 0.00 0.00 87 1009.7
20260505123054 23 154 3.2 12.9 0.00 0.00 0.00 88 1010.2
20260505122556 22 0 1.6 8.0 0.00 0.00 0.00 88 1010.2
20260505122054 22 130 1.6 8.0 0.00 0.00 0.00 88 1010.1
20260505121612 22 149 3.2 8.0 0.00 0.00 0.00 88 1010.0
20260505121055 22 219 3.2 9.7 0.00 0.00 0.00 88 1009.9
20260505120556 22 170 3.2 9.7 0.00 0.00 0.00 87 1009.7
20260505120055 22 121 3.2 9.7 0.00 0.00 0.00 87 1009.9
20260505115557 22 173 4.8 11.3 0.00 0.00 0.00 87 1009.8
20260505115058 22 157 3.2 11.3 0.00 0.00 0.00 87 1009.8
20260505114553 22 179 3.2 12.9 0.00 0.00 0.00 87 1009.6
20260505114055 22 143 3.2 12.9 0.00 0.00 0.00 87 1009.7
20260505113554 22 160 4.8 11.3 0.00 0.00 0.00 87 1009.7
20260505113053 22 131 3.2 11.3 0.00 0.00 0.00 87 1009.7
20260505112555 22 119 3.2 9.7 0.00 0.00 0.00 87 1009.7
20260505112055 22 136 3.2 9.7 0.00 0.00 0.00 87 1009.6
20260505111553 22 155 3.2 9.7 0.00 0.00 0.00 87 1009.7
20260505111055 22 163 1.6 6.4 0.00 0.00 0.00 87 1009.6